Home > Weather > El Paso > Past weeks

Flag for USA Past Weather in El Paso, Texas, USA — Yesterday and Last 2 Weeks

Now
98 °F

Passing clouds.


Feels Like: 94 °F
Forecast: 78 / 100 °F
Wind: No wind

Location: El Paso International Airport

Current Time: Jun 24, 2016 at 7:36:34 PM

Latest Report: Jun 24, 2016 at 6:51 PM


Visibility: 10 mi

Pressure: 29.64 "Hg (26.13 "Hg at 1142m altitude)

Humidity: 14%

Dew Point: 42 °F

Location of El PasoLocation

Past Weather in El Paso — Graph

°F

El Paso Temperature Yesterday

Maximum temperature yesterday: 104 °F (at 3:51 PM)
Minimum temperature yesterday: 79 °F (at 6:51 AM)
Average temperature yesterday: 92 °F

High & Low Weather Summary for the Past Weeks

 TemperatureHumidityPressure
High106 °F (Jun 18, 2:51 PM)58% (Jun 24, 12:51 AM)30.06 "Hg (Jun 24, 12:51 AM)
Low68 °F (Jun 17, 5:51 AM)2% (Jun 18, 5:51 PM)29.57 "Hg (Jun 9, 5:51 PM)
Average88 °F20%29.79 "Hg
* Reported Jun 9 5:51 PM — Jun 24 5:51 PM, El Paso, Weather by CustomWeather, © 2016

Note: Actual official high and low records may vary slightly from our data, if they occured in-between our weather recording intervals... More about our weather records

Advertising

El Paso Weather History for the Previous 24 Hours

Scroll right to see more
 ConditionsComfort  
Time TempWeatherWind HumidityBarometerVisibility
5:51 PM
Fri, Jun 24
99 °FPassing clouds.No wind14%29.65 "Hg10 mi
4:51 PM99 °FPassing clouds.9 mph14%29.67 "Hg10 mi
3:51 PM99 °FPassing clouds.6 mph16%29.70 "Hg10 mi
2:51 PM97 °FScattered clouds.7 mph16%29.72 "Hg10 mi
1:51 PM97 °FScattered clouds.3 mph17%29.76 "Hg10 mi
12:51 PM95 °FScattered clouds.7 mph20%29.79 "Hg10 mi
11:51 AM94 °FScattered clouds.10 mph21%29.82 "Hg10 mi
10:51 AM90 °FPartly sunny.9 mph27%29.83 "Hg10 mi
9:51 AM89 °FBroken clouds.12 mph28%29.83 "Hg10 mi
8:51 AM86 °FPartly sunny.13 mph31%29.83 "Hg10 mi
7:51 AM82 °FBroken clouds.7 mph41%29.83 "Hg10 mi
6:51 AM78 °FPassing clouds.8 mph52%29.83 "Hg10 mi
5:51 AM77 °FPassing clouds.No wind58%29.83 "Hg10 mi
4:51 AM78 °FPassing clouds.6 mph50%29.83 "Hg10 mi
3:51 AM78 °FPassing clouds.7 mph54%29.81 "Hg10 mi
2:51 AM80 °FLight rain. Partly cloudy.10 mph49%29.82 "Hg10 mi
1:51 AM80 °FPartly cloudy.5 mph51%29.82 "Hg10 mi
12:51 AM79 °FMostly cloudy.9 mph58%29.82 "Hg10 mi
11:54 PM
Thu, Jun 23
79 °FLight rain. Mostly cloudy.5 mph52%30.06 "Hg10 mi
10:51 PM90 °FThunderstorms. Partly cloudy.13 mph24%29.78 "Hg10 mi
9:51 PM97 °FThunderstorms. Passing clouds.15 mph17%29.69 "Hg10 mi
8:51 PM97 °FScattered clouds.12 mph16%29.68 "Hg10 mi
7:51 PM100 °FScattered clouds.20 mph14%29.66 "Hg10 mi
Weather by CustomWeather, © 2016

See weather overviewHow to use our weather pages